Year,Month,Day,Hour,Minute,Value (Times are PST for temperature in C)
2016,07,24,00,00,16.80
2016,07,24,00,01,16.80
2016,07,24,00,02,16.80
2016,07,24,00,03,16.80
2016,07,24,00,04,16.80
2016,07,24,00,05,16.80
2016,07,24,00,06,16.80
2016,07,24,00,07,16.80
2016,07,24,00,08,16.80
2016,07,24,00,09,16.80
2016,07,24,00,10,16.80
2016,07,24,00,11,16.80
2016,07,24,00,12,16.80
2016,07,24,00,13,16.80
2016,07,24,00,14,16.80
2016,07,24,00,15,16.80
2016,07,24,00,16,16.80
2016,07,24,00,17,16.80
2016,07,24,00,18,16.80
2016,07,24,00,19,16.70
2016,07,24,00,20,16.70
2016,07,24,00,21,16.70
2016,07,24,00,22,16.70
2016,07,24,00,23,16.70
2016,07,24,00,24,16.70
2016,07,24,00,25,16.70
2016,07,24,00,26,16.80
2016,07,24,00,27,16.80
2016,07,24,00,28,16.80
2016,07,24,00,29,16.70
2016,07,24,00,30,16.70
2016,07,24,00,31,16.70
2016,07,24,00,32,16.70
2016,07,24,00,33,16.70
2016,07,24,00,34,16.70
2016,07,24,00,35,16.70
2016,07,24,00,36,16.70
2016,07,24,00,37,16.70
2016,07,24,00,38,16.70
2016,07,24,00,39,16.70
2016,07,24,00,40,16.60
2016,07,24,00,41,16.60
2016,07,24,00,42,16.60
2016,07,24,00,43,16.60
2016,07,24,00,44,16.60
2016,07,24,00,45,16.60
2016,07,24,00,46,16.60
2016,07,24,00,47,16.60
2016,07,24,00,48,16.60
2016,07,24,00,49,16.60
2016,07,24,00,50,16.60
2016,07,24,00,51,16.60
2016,07,24,00,52,16.60
2016,07,24,00,53,16.60
2016,07,24,00,54,16.50
2016,07,24,00,55,16.50
2016,07,24,00,56,16.50
2016,07,24,00,57,16.40
2016,07,24,00,58,16.40
2016,07,24,00,59,16.40
2016,07,24,01,00,16.40
2016,07,24,01,01,16.30
2016,07,24,01,02,16.30
2016,07,24,01,03,16.30
2016,07,24,01,04,16.30
2016,07,24,01,05,16.20
2016,07,24,01,06,16.20
2016,07,24,01,07,16.20
2016,07,24,01,08,16.20
2016,07,24,01,09,16.20
2016,07,24,01,10,16.20
2016,07,24,01,11,16.10
2016,07,24,01,12,16.10
2016,07,24,01,13,16.10
2016,07,24,01,14,16.00
2016,07,24,01,15,16.00
2016,07,24,01,16,16.00
2016,07,24,01,17,15.90
2016,07,24,01,18,15.90
2016,07,24,01,19,15.90
2016,07,24,01,20,15.90
2016,07,24,01,21,15.80
2016,07,24,01,22,15.80
2016,07,24,01,23,15.80
2016,07,24,01,24,15.80
2016,07,24,01,25,15.70
2016,07,24,01,26,15.70
2016,07,24,01,27,15.70
2016,07,24,01,28,15.70
2016,07,24,01,29,15.70
2016,07,24,01,30,15.60
2016,07,24,01,31,15.60
2016,07,24,01,32,15.60
2016,07,24,01,33,15.50
2016,07,24,01,34,15.50
2016,07,24,01,35,15.50
2016,07,24,01,36,15.40
2016,07,24,01,37,15.40
2016,07,24,01,38,15.40
2016,07,24,01,39,15.40
2016,07,24,01,40,15.30
2016,07,24,01,41,15.30
2016,07,24,01,42,15.30
2016,07,24,01,43,15.30
2016,07,24,01,44,15.20
2016,07,24,01,45,15.20
2016,07,24,01,46,15.20
2016,07,24,01,47,15.10
2016,07,24,01,48,15.10
2016,07,24,01,49,15.10
2016,07,24,01,50,15.10
2016,07,24,01,51,15.00
2016,07,24,01,52,15.00
2016,07,24,01,53,15.00
2016,07,24,01,54,15.00
2016,07,24,01,55,15.00
2016,07,24,01,56,15.00
2016,07,24,01,57,15.00
2016,07,24,01,58,15.00
2016,07,24,01,59,15.00
2016,07,24,02,00,15.00
2016,07,24,02,01,15.00
2016,07,24,02,02,15.00
2016,07,24,02,03,15.00
2016,07,24,02,04,15.00
2016,07,24,02,05,15.00
2016,07,24,02,06,15.00
2016,07,24,02,07,15.00
2016,07,24,02,08,15.00
2016,07,24,02,09,15.00
2016,07,24,02,10,15.00
2016,07,24,02,11,15.00
2016,07,24,02,12,15.00
2016,07,24,02,13,15.00
2016,07,24,02,14,15.00
2016,07,24,02,15,15.00
2016,07,24,02,16,15.00
2016,07,24,02,17,14.90
2016,07,24,02,18,14.90
2016,07,24,02,19,14.80
2016,07,24,02,20,14.80
2016,07,24,02,21,14.80
2016,07,24,02,22,14.80
2016,07,24,02,23,14.70
2016,07,24,02,24,14.70
2016,07,24,02,25,14.70
2016,07,24,02,26,14.60
2016,07,24,02,27,14.60
2016,07,24,02,28,14.60
2016,07,24,02,29,14.60
2016,07,24,02,30,14.50
2016,07,24,02,31,14.50
2016,07,24,02,32,14.40
2016,07,24,02,33,14.40
2016,07,24,02,34,14.40
2016,07,24,02,35,14.40
2016,07,24,02,36,14.40
2016,07,24,02,37,14.40
2016,07,24,02,38,14.40
2016,07,24,02,39,14.40
2016,07,24,02,40,14.30
2016,07,24,02,41,14.30
2016,07,24,02,42,14.30
2016,07,24,02,43,14.30
2016,07,24,02,44,14.30
2016,07,24,02,45,14.30
2016,07,24,02,46,14.30
2016,07,24,02,47,14.30
2016,07,24,02,48,14.20
2016,07,24,02,49,14.20
2016,07,24,02,50,14.20
2016,07,24,02,51,14.20
2016,07,24,02,52,14.20
2016,07,24,02,53,14.20
2016,07,24,02,54,14.20
2016,07,24,02,55,14.20
2016,07,24,02,56,14.20
2016,07,24,02,57,14.20
2016,07,24,02,58,14.20
2016,07,24,02,59,14.20
2016,07,24,03,00,14.10
2016,07,24,03,01,14.10
2016,07,24,03,02,14.10
2016,07,24,03,03,14.10
2016,07,24,03,04,14.10
2016,07,24,03,05,14.10
2016,07,24,03,06,14.10
2016,07,24,03,07,14.00
2016,07,24,03,08,14.00
2016,07,24,03,09,14.00
2016,07,24,03,10,14.00
2016,07,24,03,11,13.90
2016,07,24,03,12,13.90
2016,07,24,03,13,13.90
2016,07,24,03,14,13.90
2016,07,24,03,15,13.80
2016,07,24,03,16,13.80
2016,07,24,03,17,13.80
2016,07,24,03,18,13.80
2016,07,24,03,19,13.80
2016,07,24,03,20,13.80
2016,07,24,03,21,13.80
2016,07,24,03,22,13.80
2016,07,24,03,23,13.90
2016,07,24,03,24,13.90
2016,07,24,03,25,13.90
2016,07,24,03,26,13.90
2016,07,24,03,27,13.90
2016,07,24,03,28,13.90
2016,07,24,03,29,13.80
2016,07,24,03,30,13.80
2016,07,24,03,31,13.80
2016,07,24,03,32,13.80
2016,07,24,03,33,13.80
2016,07,24,03,34,13.80
2016,07,24,03,35,13.80
2016,07,24,03,36,13.80
2016,07,24,03,37,13.70
2016,07,24,03,38,13.70
2016,07,24,03,39,13.70
2016,07,24,03,40,13.70
2016,07,24,03,41,13.70
2016,07,24,03,42,13.60
2016,07,24,03,43,13.60
2016,07,24,03,44,13.60
2016,07,24,03,45,13.60
2016,07,24,03,46,13.50
2016,07,24,03,47,13.50
2016,07,24,03,48,13.50
2016,07,24,03,49,13.50
2016,07,24,03,50,13.50
2016,07,24,03,51,13.50
2016,07,24,03,52,13.50
2016,07,24,03,53,13.50
2016,07,24,03,54,13.50
2016,07,24,03,55,13.60
2016,07,24,03,56,13.60
2016,07,24,03,57,13.60
2016,07,24,03,58,13.60
2016,07,24,03,59,13.50
2016,07,24,04,00,13.50
2016,07,24,04,01,13.50
2016,07,24,04,02,13.50
2016,07,24,04,03,13.50
2016,07,24,04,04,13.50
2016,07,24,04,05,13.50
2016,07,24,04,06,13.50
2016,07,24,04,07,13.50
2016,07,24,04,08,13.50
2016,07,24,04,09,13.50
2016,07,24,04,10,13.50
2016,07,24,04,11,13.50
2016,07,24,04,12,13.40
2016,07,24,04,13,13.40
2016,07,24,04,14,13.40
2016,07,24,04,15,13.40
2016,07,24,04,16,13.40
2016,07,24,04,17,13.40
2016,07,24,04,18,13.40
2016,07,24,04,19,13.40
2016,07,24,04,20,13.40
2016,07,24,04,21,13.30
2016,07,24,04,22,13.30
2016,07,24,04,23,13.30
2016,07,24,04,24,13.30
2016,07,24,04,25,13.30
2016,07,24,04,26,13.30
2016,07,24,04,27,13.30
2016,07,24,04,28,13.30
2016,07,24,04,29,13.30
2016,07,24,04,30,13.30
2016,07,24,04,31,13.30
2016,07,24,04,32,13.30
2016,07,24,04,33,13.30
2016,07,24,04,34,13.30
2016,07,24,04,35,13.30
2016,07,24,04,36,13.30
2016,07,24,04,37,13.30
2016,07,24,04,38,13.20
2016,07,24,04,39,13.20
2016,07,24,04,40,13.20
2016,07,24,04,41,13.20
2016,07,24,04,42,13.20
2016,07,24,04,43,13.20
2016,07,24,04,44,13.20
2016,07,24,04,45,13.20
2016,07,24,04,46,13.20
2016,07,24,04,47,13.10
2016,07,24,04,48,13.10
2016,07,24,04,49,13.10
2016,07,24,04,50,13.10
2016,07,24,04,51,13.10
2016,07,24,04,52,13.10
2016,07,24,04,53,13.10
2016,07,24,04,54,13.10
2016,07,24,04,55,13.10
2016,07,24,04,56,13.10
2016,07,24,04,57,13.10
2016,07,24,04,58,13.10
2016,07,24,04,59,13.10
2016,07,24,05,00,13.10
2016,07,24,05,01,13.00
2016,07,24,05,02,13.00
2016,07,24,05,03,13.00
2016,07,24,05,04,13.00
2016,07,24,05,05,13.00
2016,07,24,05,06,13.00
2016,07,24,05,07,12.90
2016,07,24,05,08,12.90
2016,07,24,05,09,12.90
2016,07,24,05,10,12.90
2016,07,24,05,11,12.90
2016,07,24,05,12,12.90
2016,07,24,05,13,12.90
2016,07,24,05,14,12.80
2016,07,24,05,15,12.80
2016,07,24,05,16,12.80
2016,07,24,05,17,12.80
2016,07,24,05,18,12.80
2016,07,24,05,19,12.80
2016,07,24,05,20,12.80
2016,07,24,05,21,12.70
2016,07,24,05,22,12.70
2016,07,24,05,23,12.70
2016,07,24,05,24,12.70
2016,07,24,05,25,12.70
2016,07,24,05,26,12.70
2016,07,24,05,27,12.70
2016,07,24,05,28,12.70
2016,07,24,05,29,12.70
2016,07,24,05,30,12.60
2016,07,24,05,31,12.60
2016,07,24,05,32,12.60
2016,07,24,05,33,12.60
2016,07,24,05,34,12.60
2016,07,24,05,35,12.60
2016,07,24,05,36,12.60
2016,07,24,05,37,12.60
2016,07,24,05,38,12.50
2016,07,24,05,39,12.50
2016,07,24,05,40,12.50
2016,07,24,05,41,12.50
2016,07,24,05,42,12.50
2016,07,24,05,43,12.50
2016,07,24,05,44,12.50
2016,07,24,05,45,12.40
2016,07,24,05,46,12.40
2016,07,24,05,47,12.40
2016,07,24,05,48,12.40
2016,07,24,05,49,12.40
2016,07,24,05,50,12.40
2016,07,24,05,51,12.40
2016,07,24,05,52,12.40
2016,07,24,05,53,12.40
2016,07,24,05,54,12.30
2016,07,24,05,55,12.30
2016,07,24,05,56,12.30
2016,07,24,05,57,12.30
2016,07,24,05,58,12.30
2016,07,24,05,59,12.30
2016,07,24,06,00,12.30
2016,07,24,06,01,12.30
2016,07,24,06,02,12.30
2016,07,24,06,03,12.40
2016,07,24,06,04,12.40
2016,07,24,06,05,12.40
2016,07,24,06,06,12.40
2016,07,24,06,07,12.40
2016,07,24,06,08,12.40
2016,07,24,06,09,12.40
2016,07,24,06,10,12.40
2016,07,24,06,11,12.40
2016,07,24,06,12,12.40
2016,07,24,06,13,12.40
2016,07,24,06,14,12.40
2016,07,24,06,15,12.40
2016,07,24,06,16,12.40
2016,07,24,06,17,12.40
2016,07,24,06,18,12.40
2016,07,24,06,19,12.40
2016,07,24,06,20,12.40
2016,07,24,06,21,12.40
2016,07,24,06,22,12.40
2016,07,24,06,23,12.40
2016,07,24,06,24,12.50
2016,07,24,06,25,12.50
2016,07,24,06,26,12.50
2016,07,24,06,27,12.50
2016,07,24,06,28,12.60
2016,07,24,06,29,12.60
2016,07,24,06,30,12.60
2016,07,24,06,31,12.60
2016,07,24,06,32,12.60
2016,07,24,06,33,12.70
2016,07,24,06,34,12.70
2016,07,24,06,35,12.80
2016,07,24,06,36,12.90
2016,07,24,06,37,12.90
2016,07,24,06,38,13.00
2016,07,24,06,39,13.10
2016,07,24,06,40,13.20
2016,07,24,06,41,13.20
2016,07,24,06,42,13.30
2016,07,24,06,43,13.40
2016,07,24,06,44,13.50
2016,07,24,06,45,13.60
2016,07,24,06,46,13.60
2016,07,24,06,47,13.70
2016,07,24,06,48,13.80
2016,07,24,06,49,13.90
2016,07,24,06,50,14.00
2016,07,24,06,51,14.10
2016,07,24,06,52,14.20
2016,07,24,06,53,14.30
2016,07,24,06,54,14.40
2016,07,24,06,55,14.40
2016,07,24,06,56,14.50
2016,07,24,06,57,14.60
2016,07,24,06,58,14.60
2016,07,24,06,59,14.70
2016,07,24,07,00,14.80
2016,07,24,07,01,14.90
2016,07,24,07,02,15.00
2016,07,24,07,03,15.00
2016,07,24,07,04,15.00
2016,07,24,07,05,15.00
2016,07,24,07,06,15.00
2016,07,24,07,07,15.00
2016,07,24,07,08,15.00
2016,07,24,07,09,15.00
2016,07,24,07,10,15.00
2016,07,24,07,11,15.00
2016,07,24,07,12,15.10
2016,07,24,07,13,15.20
2016,07,24,07,14,15.30
2016,07,24,07,15,15.30
2016,07,24,07,16,15.40
2016,07,24,07,17,15.50
2016,07,24,07,18,15.50
2016,07,24,07,19,15.60
2016,07,24,07,20,15.60
2016,07,24,07,21,15.70
2016,07,24,07,22,15.80
2016,07,24,07,23,15.80
2016,07,24,07,24,15.80
2016,07,24,07,25,15.90
2016,07,24,07,26,16.00
2016,07,24,07,27,16.10
2016,07,24,07,28,16.20
2016,07,24,07,29,16.30
2016,07,24,07,30,16.50
2016,07,24,07,31,16.60
2016,07,24,07,32,16.70
2016,07,24,07,33,16.90
2016,07,24,07,34,17.00
2016,07,24,07,35,17.10
2016,07,24,07,36,17.20
2016,07,24,07,37,17.30
2016,07,24,07,38,17.40
2016,07,24,07,39,17.50
2016,07,24,07,40,17.60
2016,07,24,07,41,17.60
2016,07,24,07,42,17.70
2016,07,24,07,43,17.70
2016,07,24,07,44,17.70
2016,07,24,07,45,17.70
2016,07,24,07,46,17.70
2016,07,24,07,47,17.80
2016,07,24,07,48,17.80
2016,07,24,07,49,17.80
2016,07,24,07,50,17.90
2016,07,24,07,51,17.90
2016,07,24,07,52,18.00
2016,07,24,07,53,18.00
2016,07,24,07,54,18.10
2016,07,24,07,55,18.10
2016,07,24,07,56,18.10
2016,07,24,07,57,18.20
2016,07,24,07,58,18.20
2016,07,24,07,59,18.30
2016,07,24,08,00,18.30
2016,07,24,08,01,18.40
2016,07,24,08,02,18.50
2016,07,24,08,03,18.60
2016,07,24,08,04,18.60
2016,07,24,08,05,18.60
2016,07,24,08,06,18.70
2016,07,24,08,07,18.70
2016,07,24,08,08,18.80
2016,07,24,08,09,18.90
2016,07,24,08,10,19.00
2016,07,24,08,11,19.10
2016,07,24,08,12,19.20
2016,07,24,08,13,19.30
2016,07,24,08,14,19.40
2016,07,24,08,15,19.40
2016,07,24,08,16,19.40
2016,07,24,08,17,19.40
2016,07,24,08,18,19.40
2016,07,24,08,19,19.50
2016,07,24,08,20,19.60
2016,07,24,08,21,19.60
2016,07,24,08,22,19.60
2016,07,24,08,23,19.60
2016,07,24,08,24,19.70
2016,07,24,08,25,19.70
2016,07,24,08,26,19.70
2016,07,24,08,27,19.70
2016,07,24,08,28,19.70
2016,07,24,08,29,19.60
2016,07,24,08,30,19.40
2016,07,24,08,31,19.40
2016,07,24,08,32,19.40
2016,07,24,08,33,19.30
2016,07,24,08,34,19.40
2016,07,24,08,35,19.30
2016,07,24,08,36,19.30
2016,07,24,08,37,19.30
2016,07,24,08,38,19.30
2016,07,24,08,39,19.30
2016,07,24,08,40,19.40
2016,07,24,08,41,19.40
2016,07,24,08,42,19.40
2016,07,24,08,43,19.50
2016,07,24,08,44,19.60
2016,07,24,08,45,19.60
2016,07,24,08,46,19.70
2016,07,24,08,47,19.80
2016,07,24,08,48,19.70
2016,07,24,08,49,19.70
2016,07,24,08,50,19.60
2016,07,24,08,51,19.50
2016,07,24,08,52,19.40
2016,07,24,08,53,19.40
2016,07,24,08,54,19.40
2016,07,24,08,55,19.40
2016,07,24,08,56,19.40
2016,07,24,08,57,19.40
2016,07,24,08,58,19.40
2016,07,24,08,59,19.40
2016,07,24,09,00,19.40
2016,07,24,09,01,19.30
2016,07,24,09,02,19.20
2016,07,24,09,03,19.10
2016,07,24,09,04,19.00
2016,07,24,09,05,18.90
2016,07,24,09,06,18.80
2016,07,24,09,07,18.80
2016,07,24,09,08,18.80
2016,07,24,09,09,18.80
2016,07,24,09,10,18.70
2016,07,24,09,11,18.50
2016,07,24,09,12,18.40
2016,07,24,09,13,18.30
2016,07,24,09,14,18.20
2016,07,24,09,15,18.10
2016,07,24,09,16,18.00
2016,07,24,09,17,18.00
2016,07,24,09,18,18.00
2016,07,24,09,19,18.10
2016,07,24,09,20,18.20
2016,07,24,09,21,18.20
2016,07,24,09,22,18.30
2016,07,24,09,23,18.50
2016,07,24,09,24,18.60
2016,07,24,09,25,18.70
2016,07,24,09,26,18.80
2016,07,24,09,27,18.90
2016,07,24,09,28,18.90
2016,07,24,09,29,19.00
2016,07,24,09,30,19.10
2016,07,24,09,31,19.10
2016,07,24,09,32,19.10
2016,07,24,09,33,19.20
2016,07,24,09,34,19.20
2016,07,24,09,35,19.20
2016,07,24,09,36,19.20
2016,07,24,09,37,19.30
2016,07,24,09,38,19.30
2016,07,24,09,39,19.40
2016,07,24,09,40,19.40
2016,07,24,09,41,19.30
2016,07,24,09,42,19.30
2016,07,24,09,43,19.30
2016,07,24,09,44,19.20
2016,07,24,09,45,19.00
2016,07,24,09,46,18.90
2016,07,24,09,47,18.70
2016,07,24,09,48,18.70
2016,07,24,09,49,18.60
2016,07,24,09,50,18.50
2016,07,24,09,51,18.50
2016,07,24,09,52,18.50
2016,07,24,09,53,18.60
2016,07,24,09,54,18.70
2016,07,24,09,55,18.70
2016,07,24,09,56,18.70
2016,07,24,09,57,18.60
2016,07,24,09,58,18.60
2016,07,24,09,59,18.60
2016,07,24,10,00,18.60
2016,07,24,10,01,18.50
2016,07,24,10,02,18.50
2016,07,24,10,03,18.60
2016,07,24,10,04,18.60
2016,07,24,10,05,18.60
2016,07,24,10,06,18.60
2016,07,24,10,07,18.60
2016,07,24,10,08,18.70
2016,07,24,10,09,18.70
2016,07,24,10,10,18.80
2016,07,24,10,11,18.90
2016,07,24,10,12,19.00
2016,07,24,10,13,19.10
2016,07,24,10,14,19.10
2016,07,24,10,15,19.20
2016,07,24,10,16,19.30
2016,07,24,10,17,19.40
2016,07,24,10,18,19.50
2016,07,24,10,19,19.60
2016,07,24,10,20,19.70
2016,07,24,10,21,19.80
2016,07,24,10,22,19.90
2016,07,24,10,23,20.00
2016,07,24,10,24,20.10
2016,07,24,10,25,20.20
2016,07,24,10,26,20.20
2016,07,24,10,27,20.30
2016,07,24,10,28,20.30
2016,07,24,10,29,20.40
2016,07,24,10,30,20.40
2016,07,24,10,31,20.50
2016,07,24,10,32,20.60
2016,07,24,10,33,20.60
2016,07,24,10,34,20.60
2016,07,24,10,35,20.60
2016,07,24,10,36,20.60
2016,07,24,10,37,20.60
2016,07,24,10,38,20.70
2016,07,24,10,39,20.60
2016,07,24,10,40,20.60
2016,07,24,10,41,20.60
2016,07,24,10,42,20.60
2016,07,24,10,43,20.60
2016,07,24,10,44,20.70
2016,07,24,10,45,20.60
2016,07,24,10,46,20.60
2016,07,24,10,47,20.70
2016,07,24,10,48,20.70
2016,07,24,10,49,20.70
2016,07,24,10,50,20.60
2016,07,24,10,51,20.60
2016,07,24,10,52,20.50
2016,07,24,10,53,20.40
2016,07,24,10,54,20.30
2016,07,24,10,55,20.30
2016,07,24,10,56,20.20
2016,07,24,10,57,20.10
2016,07,24,10,58,20.00
2016,07,24,10,59,19.90
2016,07,24,11,00,19.80
2016,07,24,11,01,19.80
2016,07,24,11,02,19.80
2016,07,24,11,03,19.90
2016,07,24,11,04,19.90
2016,07,24,11,05,19.90
2016,07,24,11,06,19.80
2016,07,24,11,07,19.80
2016,07,24,11,08,19.80
2016,07,24,11,09,19.70
2016,07,24,11,10,19.60
2016,07,24,11,11,19.60
2016,07,24,11,12,19.70
2016,07,24,11,13,19.70
2016,07,24,11,14,19.80
2016,07,24,11,15,19.80
2016,07,24,11,16,19.80
2016,07,24,11,17,19.90
2016,07,24,11,18,20.00
2016,07,24,11,19,20.00
2016,07,24,11,20,20.20
2016,07,24,11,21,20.30
2016,07,24,11,22,20.40
2016,07,24,11,23,20.40
2016,07,24,11,24,20.40
2016,07,24,11,25,20.50
2016,07,24,11,26,20.60
2016,07,24,11,27,20.70
2016,07,24,11,28,20.80
2016,07,24,11,29,20.90
2016,07,24,11,30,21.00
2016,07,24,11,31,21.00
2016,07,24,11,32,20.90
2016,07,24,11,33,20.80
2016,07,24,11,34,20.80
2016,07,24,11,35,20.70
2016,07,24,11,36,20.60
2016,07,24,11,37,20.60
2016,07,24,11,38,20.60
2016,07,24,11,39,20.60
2016,07,24,11,40,20.50
2016,07,24,11,41,20.50
2016,07,24,11,42,20.60
2016,07,24,11,43,20.60
2016,07,24,11,44,20.60
2016,07,24,11,45,20.70
2016,07,24,11,46,20.80
2016,07,24,11,47,20.90
2016,07,24,11,48,20.90
2016,07,24,11,49,20.90
2016,07,24,11,50,20.90
2016,07,24,11,51,20.90
2016,07,24,11,52,20.90
2016,07,24,11,53,20.90
2016,07,24,11,54,20.90
2016,07,24,11,55,21.00
2016,07,24,11,56,21.00
2016,07,24,11,57,20.80
2016,07,24,11,58,20.70
2016,07,24,11,59,20.60
2016,07,24,12,00,20.40
2016,07,24,12,01,20.30
2016,07,24,12,02,20.20
2016,07,24,12,03,20.20
2016,07,24,12,04,20.10
2016,07,24,12,05,20.00
2016,07,24,12,06,19.80
2016,07,24,12,07,19.80
2016,07,24,12,08,19.80
2016,07,24,12,09,19.80
2016,07,24,12,10,19.80
2016,07,24,12,11,19.90
2016,07,24,12,12,20.00
2016,07,24,12,13,20.10
2016,07,24,12,14,20.20
2016,07,24,12,15,20.20
2016,07,24,12,16,20.10
2016,07,24,12,17,20.10
2016,07,24,12,18,20.00
2016,07,24,12,19,20.00
2016,07,24,12,20,20.00
2016,07,24,12,21,20.10
2016,07,24,12,22,20.20
2016,07,24,12,23,20.30
2016,07,24,12,24,20.30
2016,07,24,12,25,20.40
2016,07,24,12,26,20.30
2016,07,24,12,27,20.30
2016,07,24,12,28,20.30
2016,07,24,12,29,20.30
2016,07,24,12,30,20.20
2016,07,24,12,31,20.20
2016,07,24,12,32,20.20
2016,07,24,12,33,20.20
2016,07,24,12,34,20.30
2016,07,24,12,35,20.30
2016,07,24,12,36,20.30
2016,07,24,12,37,20.30
2016,07,24,12,38,20.30
2016,07,24,12,39,20.30
2016,07,24,12,40,20.30
2016,07,24,12,41,20.30
2016,07,24,12,42,20.40
2016,07,24,12,43,20.50
2016,07,24,12,44,20.50
2016,07,24,12,45,20.70
2016,07,24,12,46,20.70
2016,07,24,12,47,20.70
2016,07,24,12,48,20.80
2016,07,24,12,49,20.90
2016,07,24,12,50,21.00
2016,07,24,12,51,21.20
2016,07,24,12,52,21.40
2016,07,24,12,53,21.50
2016,07,24,12,54,21.60
2016,07,24,12,55,21.50
2016,07,24,12,56,21.40
2016,07,24,12,57,21.20
2016,07,24,12,58,21.10
2016,07,24,12,59,21.00
2016,07,24,13,00,20.90
2016,07,24,13,01,20.80
2016,07,24,13,02,20.90
2016,07,24,13,03,21.00
2016,07,24,13,04,21.00
2016,07,24,13,05,21.00
2016,07,24,13,06,21.00
2016,07,24,13,07,20.90
2016,07,24,13,08,20.90
2016,07,24,13,09,21.00
2016,07,24,13,10,21.00
2016,07,24,13,11,21.00
2016,07,24,13,12,21.00
2016,07,24,13,13,21.00
2016,07,24,13,14,20.90
2016,07,24,13,15,20.80
2016,07,24,13,16,20.80
2016,07,24,13,17,20.90
2016,07,24,13,18,20.90
2016,07,24,13,19,20.90
2016,07,24,13,20,20.90
2016,07,24,13,21,21.00
2016,07,24,13,22,21.10
2016,07,24,13,23,21.30
2016,07,24,13,24,21.40
2016,07,24,13,25,21.50
2016,07,24,13,26,21.60
2016,07,24,13,27,21.70
2016,07,24,13,28,21.80
2016,07,24,13,29,21.80
2016,07,24,13,30,21.80
2016,07,24,13,31,21.80
2016,07,24,13,32,21.80
2016,07,24,13,33,21.80
2016,07,24,13,34,21.80
2016,07,24,13,35,21.80
2016,07,24,13,36,21.70
2016,07,24,13,37,21.50
2016,07,24,13,38,21.40
2016,07,24,13,39,21.40
2016,07,24,13,40,21.40
2016,07,24,13,41,21.40
2016,07,24,13,42,21.30
2016,07,24,13,43,21.30
2016,07,24,13,44,21.30
2016,07,24,13,45,21.40
2016,07,24,13,46,21.40
2016,07,24,13,47,21.30
2016,07,24,13,48,21.20
2016,07,24,13,49,21.10
2016,07,24,13,50,21.10
2016,07,24,13,51,21.30
2016,07,24,13,52,21.40
2016,07,24,13,53,21.60
2016,07,24,13,54,21.80
2016,07,24,13,55,21.90
2016,07,24,13,56,21.80
2016,07,24,13,57,21.70
2016,07,24,13,58,21.40
2016,07,24,13,59,21.30
2016,07,24,14,00,21.30
2016,07,24,14,01,21.40
2016,07,24,14,02,21.60
2016,07,24,14,03,21.60
2016,07,24,14,04,21.70
2016,07,24,14,05,21.80
2016,07,24,14,06,21.80
2016,07,24,14,07,21.80
2016,07,24,14,08,21.90
2016,07,24,14,09,22.00
2016,07,24,14,10,22.10
2016,07,24,14,11,22.10
2016,07,24,14,12,22.00
2016,07,24,14,13,21.90
2016,07,24,14,14,22.00
2016,07,24,14,15,22.10
2016,07,24,14,16,22.10
2016,07,24,14,17,22.10
2016,07,24,14,18,22.00
2016,07,24,14,19,22.00
2016,07,24,14,20,21.90
2016,07,24,14,21,21.80
2016,07,24,14,22,21.80
2016,07,24,14,23,21.80
2016,07,24,14,24,21.80
2016,07,24,14,25,21.80
2016,07,24,14,26,21.90
2016,07,24,14,27,22.00
2016,07,24,14,28,22.10
2016,07,24,14,29,22.30
2016,07,24,14,30,22.50
2016,07,24,14,31,22.60
2016,07,24,14,32,22.70
2016,07,24,14,33,22.70
2016,07,24,14,34,22.70
2016,07,24,14,35,22.70
2016,07,24,14,36,22.80
2016,07,24,14,37,22.90
2016,07,24,14,38,23.00
2016,07,24,14,39,23.10
2016,07,24,14,40,23.00
2016,07,24,14,41,23.00
2016,07,24,14,42,23.00
2016,07,24,14,43,22.90
2016,07,24,14,44,22.80
2016,07,24,14,45,22.60
2016,07,24,14,46,22.60
2016,07,24,14,47,22.60
2016,07,24,14,48,22.60
2016,07,24,14,49,22.50
2016,07,24,14,50,22.50
2016,07,24,14,51,22.50
2016,07,24,14,52,22.50
2016,07,24,14,53,22.50
2016,07,24,14,54,22.60
2016,07,24,14,55,22.60
2016,07,24,14,56,22.70
2016,07,24,14,57,22.70
2016,07,24,14,58,22.70
2016,07,24,14,59,22.70
2016,07,24,15,00,22.80
2016,07,24,15,01,22.80
2016,07,24,15,02,22.70
2016,07,24,15,03,22.70
2016,07,24,15,04,22.70
2016,07,24,15,05,22.60
2016,07,24,15,06,22.60
2016,07,24,15,07,22.60
2016,07,24,15,08,22.70
2016,07,24,15,09,22.70
2016,07,24,15,10,22.80
2016,07,24,15,11,22.80
2016,07,24,15,12,22.80
2016,07,24,15,13,22.80
2016,07,24,15,14,22.80
2016,07,24,15,15,22.90
2016,07,24,15,16,22.90
2016,07,24,15,17,22.90
2016,07,24,15,18,22.80
2016,07,24,15,19,22.90
2016,07,24,15,20,22.90
2016,07,24,15,21,22.90
2016,07,24,15,22,22.90
2016,07,24,15,23,22.90
2016,07,24,15,24,22.90
2016,07,24,15,25,22.90
2016,07,24,15,26,22.90
2016,07,24,15,27,22.90
2016,07,24,15,28,23.00
2016,07,24,15,29,23.10
2016,07,24,15,30,23.30
2016,07,24,15,31,23.40
2016,07,24,15,32,23.40
2016,07,24,15,33,23.40
2016,07,24,15,34,23.40
2016,07,24,15,35,23.40
2016,07,24,15,36,23.40
2016,07,24,15,37,23.40
2016,07,24,15,38,23.40
2016,07,24,15,39,23.40
2016,07,24,15,40,23.50
2016,07,24,15,41,23.60
2016,07,24,15,42,23.70
2016,07,24,15,43,23.80
2016,07,24,15,44,24.00
2016,07,24,15,45,24.10
2016,07,24,15,46,24.20
2016,07,24,15,47,24.20
2016,07,24,15,48,24.20
2016,07,24,15,49,24.30
2016,07,24,15,50,24.30
2016,07,24,15,51,24.20
2016,07,24,15,52,24.20
2016,07,24,15,53,24.20
2016,07,24,15,54,24.20
2016,07,24,15,55,24.20
2016,07,24,15,56,24.20
2016,07,24,15,57,24.30
2016,07,24,15,58,24.40
2016,07,24,15,59,24.40
2016,07,24,16,00,24.50
2016,07,24,16,01,24.60
2016,07,24,16,02,24.60
2016,07,24,16,03,24.80
2016,07,24,16,04,24.90
2016,07,24,16,05,25.10
2016,07,24,16,06,25.10
2016,07,24,16,07,25.10
2016,07,24,16,08,25.10
2016,07,24,16,09,25.00
2016,07,24,16,10,24.90
2016,07,24,16,11,24.80
2016,07,24,16,12,24.80
2016,07,24,16,13,24.80
2016,07,24,16,14,24.80
2016,07,24,16,15,24.70
2016,07,24,16,16,24.70
2016,07,24,16,17,24.70
2016,07,24,16,18,24.70
2016,07,24,16,19,24.70
2016,07,24,16,20,24.70
2016,07,24,16,21,24.70
2016,07,24,16,22,24.70
2016,07,24,16,23,24.70
2016,07,24,16,24,24.70
2016,07,24,16,25,24.70
2016,07,24,16,26,24.80
2016,07,24,16,27,24.90
2016,07,24,16,28,25.00
2016,07,24,16,29,25.10
2016,07,24,16,30,25.20
2016,07,24,16,31,25.20
2016,07,24,16,32,25.30
2016,07,24,16,33,25.30
2016,07,24,16,34,25.40
2016,07,24,16,35,25.50
2016,07,24,16,36,25.60
2016,07,24,16,37,25.60
2016,07,24,16,38,25.70
2016,07,24,16,39,25.70
2016,07,24,16,40,25.80
2016,07,24,16,41,25.90
2016,07,24,16,42,26.00
2016,07,24,16,43,26.10
2016,07,24,16,44,26.20
2016,07,24,16,45,26.20
2016,07,24,16,46,26.30
2016,07,24,16,47,26.40
2016,07,24,16,48,26.50
2016,07,24,16,49,26.60
2016,07,24,16,50,26.60
2016,07,24,16,51,26.70
2016,07,24,16,52,26.70
2016,07,24,16,53,26.70
2016,07,24,16,54,26.60
2016,07,24,16,55,26.60
2016,07,24,16,56,26.50
2016,07,24,16,57,26.40
2016,07,24,16,58,26.30
2016,07,24,16,59,26.10
2016,07,24,17,00,26.00
2016,07,24,17,01,25.90
2016,07,24,17,02,25.90
2016,07,24,17,03,25.90
2016,07,24,17,04,25.90
2016,07,24,17,05,25.80
2016,07,24,17,06,25.80
2016,07,24,17,07,25.80
2016,07,24,17,08,25.60
2016,07,24,17,09,25.50
2016,07,24,17,10,25.50
2016,07,24,17,11,25.40
2016,07,24,17,12,25.40
2016,07,24,17,13,25.40
2016,07,24,17,14,25.40
2016,07,24,17,15,25.40
2016,07,24,17,16,25.40
2016,07,24,17,17,25.40
2016,07,24,17,18,25.30
2016,07,24,17,19,25.30